Terminal Aerodrome Forecast
Issued by NWS

Home | Current Version | Previous Version | Text Only | Print | Product List | Glossary On
Versions: 1 2 3 4 5 6 7 8 9 10 11 12 13 14 15 16 17 18 19 20 21 22 23 24 25 26 27 28 29 30 31 32 33 34 35 36 37 38 39 40 41 42 43 44 45 46 47 48 49 50
000
FTUS45 KBOU 290307 AAB
TAFAPA
TAF AMD
KAPA 290307Z 2903/2924 16013KT P6SM FEW070 SCT100 BKN220
      TEMPO 2904/2906 -TSRA BKN060CB
     FM290600 07008KT P6SM SCT060 BKN120
     FM291000 18006KT P6SM FEW050 BKN200
     FM291600 26007KT P6SM SCT060 BKN140
     FM291800 01008KT P6SM SCT080 BKN120
     FM292100 08013KT P6SM VCSH SCT060 BKN080
      TEMPO 2921/2924 VRB20G30KT 5SM TSRA BKN050CB=

USA.gov is the U.S. government's official web portal to all federal, state and local government web resources and services.